Salem, IN

7:25 AM EDT on July 26, 2017 (GMT -0400)
N/W Washington County | | Change Station

Elev 804 ft 38.70 °N, 86.29 °W | Updated 9 seconds ago

Partly Cloudy
Partly Cloudy
64.2 °F
Feels Like 64.2 °F
N
0.0
Wind Variable Wind from WSW
Gusts 0.0 mph

Today
High -- | Low -- °F
--% Chance of Precip.
Yesterday
High -- | Low -- °F
Precip. -- in
Pressure 30.12 in
Visibility 10.0 miles
Clouds Scattered Clouds 4700 ft
Mostly Cloudy 5500 ft
Dew Point 57 °F
Humidity 77%
Rainfall 0.00 in
Snow Depth Not available.
6:41 AM 9:00 PM
Waxing Crescent, 12% visible
METAR KLOU 261053Z 11003KT 10SM SCT047 BKN055 21/18 A3013 RMK AO2 SLP198 T02060178 $
Pressure 30.12 in
Visibility 10.0 miles
Clouds Scattered Clouds 4700 ft
Mostly Cloudy 5500 ft
Dew Point 57 °F
Humidity 77%
Rainfall 0.00 in
Snow Depth Not available.
6:41 AM 9:00 PM
Waxing Crescent, 12% visible
METAR KLOU 261053Z 11003KT 10SM SCT047 BKN055 21/18 A3013 RMK AO2 SLP198 T02060178 $

Get Severe Weather Alerts

Thanks for signing up!

Be on the lookout for a verification email in your inbox.

You'll start receiving the daily forecast at 6 AM.

×

10-Day Weather Forecast

Almanac

Astronomy

Jul. 26, 2017 Rise Set
Actual Time
Civil Twilight
Nautical Twilight
Astronomical Twilight
Moon
Length of Visible Light
Length of Day
Tomorrow will be .
, % of the Moon is Illuminated

Today's Extremes

State Highs State Lows

Community

WunderPhotos

Category 6

Welcome to Category 6. This is the collective home for Weather Underground's featured writeups by Dr. Jeff Masters (right), Bob Henson (left), Chris Burt, and other regular contributors.

Nearby

Air Quality

  Air Quality AQ Index Pollutant
Not available.

Snow Depth

Station Depth Elevation

Earthquake Activity

City Distance Mag. Time & Date
Minimum magnitude displayed is 2.5.

Coastal Water Temperatures

Place Temperature

Stations

Nearby Weather Stations

Station Location Temp. Windchill Dew Point Humidity Wind Precip. Elev Updated Type
                   

Watches & Warnings

There are currently no watches in effect.